Location: Geography Hall
(41.1195°N, 80.5706°W)
Time: 20:31:35
(UTC+00:00)

Helios 1A Rocket - Pass Details

Date: 29 October 2020
Orbit: 563 x 586 km, 98.3° (Epoch: 02 December)

Event Time Altitude Azimuth Distance (km) Brightness Sun altitude
Rises 23:35:33 0° 158° (SSE) 2,793 6.3 -14.6°
Reaches altitude 10° 23:37:43 10° 155° (SSE) 1,895 5.4 -15.0°
Maximum altitude 23:41:47 64° 74° (ENE) 644 2.8 -15.7°
Drops below altitude 10° 23:45:51 10° 353° (N) 1,897 5.6 -16.5°
Sets 23:48:00 0° 351° (N) 2,796 6.5 -16.9°
